STARLINK-2420, 47831

Orbit data source: Space-Track

STARLINK-2420, 47831 is a payload satellite owned by SpaceX/Seattle (US) in LEO that was launched on Thu, 11 Mar 2021 UTC via an FALCON 9 launch vehicle from the Air Force Eastern Test Range (AFETR). Payload-class satellites include a variety of spacecraft equipped with specific instruments for various scientific and technological missions. These include communications satellites like Starlink; space stations such as the ISS; scientific satellites like the Hubble; Earth observation satellites from companies like Planet Labs, Umbra, and HawkEye 360; GPS; miniature CubeSats for education and research; and military/defense satellites.

Loading next visibility...
Identifier
47831, 2021-018AW
Orbit
LEO
Country
Flag of USUS
Related business
Manufacturer
SpaceX/Seattle
Mission
Operational Commercial Communications
Bus & Motor
STARLINK, Unknown motor
Mass
260 kg wet, ~248 kg dry
Launch date (UTC)
2021-03-11 (5 years ago)
Launch vehicle
FALCON 9
Launch site
Air Force Eastern Test Range (AFETR)
Object type
Payload
Rocket body
Debris
Shape & HBR
Box + 1 Pan, 10.1 m
Radar Cross Section
13.562 m², Large (>1 m²)

Expand to show TLE details & history
Last TLE update: 1 day ago

TLE from 1 day ago
0 STARLINK-2420
1 47831U 21018AW  25292.02021278  .00002059  00000-0  15709-3 0  9998
2 47831  53.0526 152.5951 0001518  97.8078 262.3084 15.06404621255509
Epoch: 2025-10-19T00:29Z
TLE epoch observation values (Epoch: 2025-10-19T00:29:06.384Z)
Latitude
0.00005°
Longitude
117.57566°
Altitude
548.217 km
Speed
7.589 km/s
True Right ascension
10h 10m 22s
True Declination
0° 00' 00"
Sunlit
Object was in daylight at epoch
Visualization orbit readout
Latitude
Unknown
Longitude
Unknown
Altitude
Unknown
Speed
Unknown
Apparent Right ascension
Unknown
Apparent Declination
Unknown
Sunlit
N/A
Visualization observer readout
Local Sidereal Time
18:56:45
Azimuth
Unknown
Elevation
Unknown
Doppler factor
Unknown
Orbital elements
Apogee altitude
548.52 km
Perigee altitude
546.417 km
Semi-major axis
6,925.605 km
Eccentricity
0.00015
Inclination
53.0526°
RAAN
152.5951°
Arg. of periapsis
97.8078°
True anomaly
262.29116°
Mean anomaly
262.3084°
Eccentric anomaly
262.29978°
Mean motion
3.76579 °/min
Orbital period
95.6 mins
BSTAR
0.00015709
Loading maneuver chart data...
Computing Atmospheric mass density...

Documentation

Showing up to 5 results
|